| time (UTC) | temp F | wind direction | speed MPH | gust MPH | rain 1hr in | rain 24hr in | rain mn in | humidity % | barometer mb |
| 20260903104542 | 61 | 329 | 0.0 | 4.0 | 0.00 | 0.00 | 0.00 | 41 | 1003.3 |
| 20260903103040 | 63 | 140 | 0.0 | 4.0 | 0.00 | 0.00 | 0.00 | 41 | 1003.3 |
| 20260903101640 | 65 | 149 | 0.0 | 0.0 | 0.00 | 0.00 | 0.00 | 38 | 1003.2 |
| 20260903100039 | 65 | 161 | 0.0 | 2.0 | 0.00 | 0.00 | 0.00 | 38 | 1003.3 |
| 20260903094550 | 63 | 149 | 0.0 | 2.0 | 0.00 | 0.00 | 0.00 | 40 | 1003.3 |
| 20260903093138 | 62 | 201 | 0.0 | 3.0 | 0.00 | 0.00 | 0.00 | 41 | 1003.3 |
| 20260903091636 | 62 | 253 | 2.0 | 4.0 | 0.00 | 0.00 | 0.00 | 41 | 1003.3 |
| 20260903090036 | 64 | 232 | 0.0 | 1.0 | 0.00 | 0.00 | 0.00 | 40 | 1003.2 |
| 20260903084536 | 63 | 205 | 0.0 | 0.0 | 0.00 | 0.00 | 0.00 | 42 | 1003.4 |
| 20260903083035 | 62 | 219 | 0.0 | 2.0 | 0.00 | 0.00 | 0.00 | 42 | 1003.5 |
| 20260903081631 | 63 | 211 | 1.0 | 2.0 | 0.00 | 0.00 | 0.00 | 40 | 1003.5 |
| 20260903080045 | 62 | 1 | 0.0 | 6.0 | 0.00 | 0.00 | 0.00 | 40 | 1003.4 |
| 20260903074526 | 64 | 238 | 0.0 | 2.0 | 0.00 | 0.00 | 0.00 | 38 | 1003.0 |
| 20260903073025 | 64 | 275 | 0.0 | 3.0 | 0.00 | 0.00 | 0.00 | 38 | 1003.0 |
| 20260903071522 | 66 | 272 | 1.0 | 4.0 | 0.00 | 0.00 | 0.00 | 36 | 1003.2 |
| 20260903070020 | 65 | 108 | 0.0 | 1.0 | 0.00 | 0.00 | 0.00 | 41 | 1003.3 |
| 20260903064618 | 65 | 159 | 1.0 | 3.0 | 0.00 | 0.00 | 0.00 | 37 | 1003.1 |
| 20260903063016 | 67 | 222 | 0.0 | 2.0 | 0.00 | 0.00 | 0.00 | 35 | 1002.9 |
| 20260903061515 | 67 | 213 | 0.0 | 3.0 | 0.00 | 0.00 | 0.00 | 35 | 1002.8 |
| 20260903060011 | 70 | 214 | 1.0 | 2.0 | 0.00 | 0.00 | 0.00 | 32 | 1002.6 |
| 20260903054623 | 70 | 152 | 2.0 | 2.0 | 0.00 | 0.00 | 0.00 | 33 | 1002.5 |
| 20260903053010 | 71 | 136 | 1.0 | 4.0 | 0.00 | 0.00 | 0.00 | 33 | 1002.7 |
| 20260903051509 | 69 | 30 | 0.0 | 3.0 | 0.00 | 0.00 | 0.00 | 34 | 1002.7 |
| 20260903050020 | 71 | 192 | 1.0 | 3.0 | 0.00 | 0.00 | 0.00 | 32 | 1002.7 |
| 20260903044610 | 73 | 208 | 2.0 | 3.0 | 0.00 | 0.00 | 0.00 | 31 | 1002.8 |
| 20260903043010 | 73 | 223 | 3.0 | 6.0 | 0.00 | 0.00 | 0.00 | 30 | 1002.9 |
| 20260903041513 | 73 | 142 | 2.0 | 7.0 | 0.00 | 0.00 | 0.00 | 30 | 1002.8 |
| 20260903040009 | 72 | 120 | 0.0 | 1.0 | 0.00 | 0.00 | 0.00 | 31 | 1002.7 |
| 20260903034610 | 74 | 310 | 0.0 | 6.0 | 0.00 | 0.00 | 0.00 | 29 | 1002.4 |
| 20260903033008 | 75 | 168 | 5.0 | 7.0 | 0.00 | 0.00 | 0.00 | 28 | 1002.2 |
| 20260903031507 | 76 | 173 | 5.0 | 8.0 | 0.00 | 0.00 | 0.00 | 27 | 1002.1 |
| 20260903030006 | 76 | 188 | 4.0 | 8.0 | 0.00 | 0.00 | 0.00 | 26 | 1002.0 |
| 20260903024607 | 78 | 197 | 6.0 | 9.0 | 0.00 | 0.00 | 0.00 | 26 | 1001.8 |
| 20260903023008 | 79 | 179 | 5.0 | 11.0 | 0.00 | 0.00 | 0.00 | 26 | 1001.5 |
| 20260903021505 | 79 | 192 | 5.0 | 8.0 | 0.00 | 0.00 | 0.00 | 26 | 1001.3 |
| 20260903020003 | 79 | 147 | 3.0 | 5.0 | 0.00 | 0.00 | 0.00 | 27 | 1001.1 |
| 20260903014604 | 81 | 142 | 3.0 | 5.0 | 0.00 | 0.00 | 0.00 | 26 | 1000.9 |
| 20260903013001 | 83 | 159 | 5.0 | 10.0 | 0.00 | 0.00 | 0.00 | 23 | 1000.9 |
| 20260903011501 | 82 | 168 | 3.0 | 7.0 | 0.00 | 0.00 | 0.00 | 24 | 1001.0 |
| 20260903010002 | 83 | 193 | 6.0 | 10.0 | 0.00 | 0.00 | 0.00 | 24 | 1001.1 |
| 20260903004602 | 83 | 182 | 6.0 | 8.0 | 0.00 | 0.00 | 0.00 | 24 | 1001.2 |
| 20260903003059 | 83 | 166 | 7.0 | 13.0 | 0.00 | 0.00 | 0.00 | 24 | 1001.3 |
| 20260903001606 | 85 | 211 | 11.0 | 16.0 | 0.00 | 0.00 | 0.00 | 22 | 1001.1 |
| 20260902234600 | 87 | 173 | 12.0 | 26.0 | 0.00 | 0.00 | 0.00 | 21 | 1001.2 |
| 20260902233103 | 86 | 208 | 17.0 | 26.0 | 0.00 | 0.00 | 0.00 | 21 | 1001.1 |
| 20260902231558 | 87 | 175 | 8.0 | 15.0 | 0.00 | 0.00 | 0.00 | 22 | 1000.8 |
| 20260902230116 | 87 | 192 | 10.0 | 19.0 | 0.00 | 0.00 | 0.00 | 22 | 1001.3 |
| 20260902224600 | 87 | 187 | 14.0 | 24.0 | 0.00 | 0.00 | 0.00 | 21 | 1001.3 |
| 20260902223056 | 87 | 159 | 17.0 | 23.0 | 0.00 | 0.00 | 0.00 | 22 | 1001.3 |
| 20260902221554 | 86 | 185 | 9.0 | 21.0 | 0.00 | 0.00 | 0.00 | 23 | 1001.5 |
| 20260902220057 | 87 | 199 | 14.0 | 22.0 | 0.00 | 0.00 | 0.00 | 23 | 1001.7 |
| 20260902214555 | 87 | 179 | 16.0 | 26.0 | 0.00 | 0.00 | 0.00 | 21 | 1001.7 |
| 20260902213053 | 87 | 154 | 10.0 | 25.0 | 0.00 | 0.00 | 0.00 | 22 | 1001.8 |
| 20260902211552 | 87 | 156 | 17.0 | 27.0 | 0.00 | 0.00 | 0.00 | 22 | 1002.0 |
| 20260902204548 | 86 | 169 | 14.0 | 22.0 | 0.00 | 0.00 | 0.00 | 23 | 1002.6 |
| 20260902203043 | 85 | 191 | 11.0 | 19.0 | 0.00 | 0.00 | 0.00 | 24 | 1002.8 |
| 20260902201542 | 85 | 193 | 7.0 | 21.0 | 0.00 | 0.00 | 0.00 | 24 | 1003.1 |
| 20260902200039 | 84 | 238 | 10.0 | 16.0 | 0.00 | 0.00 | 0.00 | 26 | 1003.3 |
| 20260902194544 | 84 | 238 | 13.0 | 23.0 | 0.00 | 0.00 | 0.00 | 28 | 1003.5 |
| 20260902193034 | 84 | 218 | 13.0 | 22.0 | 0.00 | 0.00 | 0.00 | 28 | 1003.6 |
| 20260902191536 | 83 | 218 | 17.0 | 24.0 | 0.00 | 0.00 | 0.00 | 28 | 1003.7 |
| 20260902190048 | 84 | 217 | 18.0 | 25.0 | 0.00 | 0.00 | 0.00 | 26 | 1003.9 |
| 20260902184530 | 84 | 207 | 12.0 | 24.0 | 0.00 | 0.00 | 0.00 | 25 | 1003.8 |
| 20260902183029 | 84 | 194 | 18.0 | 28.0 | 0.00 | 0.00 | 0.00 | 24 | 1004.1 |
| 20260902181527 | 85 | 224 | 12.0 | 22.0 | 0.00 | 0.00 | 0.00 | 24 | 1004.2 |
| 20260902180033 | 84 | 204 | 11.0 | 19.0 | 0.00 | 0.00 | 0.00 | 23 | 1004.4 |
| 20260902174522 | 84 | 202 | 13.0 | 20.0 | 0.00 | 0.00 | 0.00 | 23 | 1004.4 |
| 20260902173028 | 83 | 156 | 8.0 | 19.0 | 0.00 | 0.00 | 0.00 | 27 | 1004.5 |
| 20260902171517 | 82 | 134 | 10.0 | 16.0 | 0.00 | 0.00 | 0.00 | 31 | 1004.7 |
| 20260902170015 | 82 | 160 | 7.0 | 17.0 | 0.00 | 0.00 | 0.00 | 32 | 1004.9 |
| 20260902164512 | 81 | 160 | 6.0 | 13.0 | 0.00 | 0.00 | 0.00 | 32 | 1005.0 |
| 20260902163011 | 80 | 208 | 9.0 | 13.0 | 0.00 | 0.00 | 0.00 | 33 | 1005.1 |
| 20260902161514 | 80 | 223 | 8.0 | 16.0 | 0.00 | 0.00 | 0.00 | 34 | 1005.3 |
| 20260902160009 | 79 | 253 | 7.0 | 13.0 | 0.00 | 0.00 | 0.00 | 35 | 1005.5 |
| 20260902154503 | 78 | 183 | 8.0 | 12.0 | 0.00 | 0.00 | 0.00 | 36 | 1005.6 |
| 20260902153059 | 76 | 130 | 6.0 | 10.0 | 0.00 | 0.00 | 0.00 | 38 | 1005.7 |
| 20260902151555 | 74 | 140 | 6.0 | 11.0 | 0.00 | 0.00 | 0.00 | 40 | 1005.9 |
| 20260902150052 | 72 | 178 | 7.0 | 10.0 | 0.00 | 0.00 | 0.00 | 41 | 1006.2 |
| 20260902144548 | 67 | 154 | 5.0 | 7.0 | 0.00 | 0.00 | 0.00 | 48 | 1006.2 |
| 20260902143047 | 63 | 110 | 0.0 | 2.0 | 0.00 | 0.00 | 0.00 | 53 | 1006.5 |
| 20260902141551 | 60 | 13 | 0.0 | 1.0 | 0.00 | 0.00 | 0.00 | 57 | 1006.6 |
| 20260902140052 | 60 | 327 | 1.0 | 3.0 | 0.00 | 0.00 | 0.00 | 57 | 1006.6 |
| 20260902134556 | 58 | 118 | 0.0 | 2.0 | 0.00 | 0.00 | 0.00 | 59 | 1006.8 |
| 20260902133044 | 57 | 128 | 1.0 | 3.0 | 0.00 | 0.00 | 0.00 | 59 | 1006.6 |
| 20260902131542 | 56 | 202 | 0.0 | 2.0 | 0.00 | 0.00 | 0.00 | 60 | 1006.4 |
| 20260902130043 | 55 | 182 | 1.0 | 4.0 | 0.00 | 0.00 | 0.00 | 61 | 1006.3 |
| 20260902124542 | 57 | 128 | 0.0 | 4.0 | 0.00 | 0.00 | 0.00 | 59 | 1006.2 |
| 20260902123041 | 58 | 199 | 2.0 | 5.0 | 0.00 | 0.00 | 0.00 | 59 | 1006.3 |
| 20260902121540 | 57 | 164 | 3.0 | 7.0 | 0.00 | 0.00 | 0.00 | 61 | 1006.2 |
| 20260902120039 | 56 | 161 | 3.0 | 4.0 | 0.00 | 0.00 | 0.00 | 63 | 1006.1 |
| 20260902114538 | 56 | 138 | 4.0 | 7.0 | 0.00 | 0.00 | 0.00 | 62 | 1006.1 |
| 20260902113036 | 57 | 117 | 1.0 | 4.0 | 0.00 | 0.00 | 0.00 | 59 | 1006.1 |
| 20260902111534 | 57 | 149 | 0.0 | 2.0 | 0.00 | 0.00 | 0.00 | 59 | 1006.1 |
| 20260902110035 | 57 | 128 | 0.0 | 1.0 | 0.00 | 0.00 | 0.00 | 59 | 1006.3 |